TimeCDT,TemperatureF,Dew PointF,Humidity,Sea Level PressureIn,VisibilityMPH,Wind Direction,Wind SpeedMPH,Gust SpeedMPH,PrecipitationIn,Events,Conditions,WindDirDegrees,DateUTC
12:15 AM,55.0,44.1,67,30.16,10.0,SSE,3.5,-,N/A,,Clear,150,2013-10-09 05:15:00
12:35 AM,54.0,44.1,69,30.16,10.0,SSE,3.5,-,N/A,,Clear,150,2013-10-09 05:35:00
12:55 AM,54.1,44.4,70,30.16,10.0,SE,3.5,-,N/A,,Clear,140,2013-10-09 05:55:00
1:15 AM,54.0,44.6,71,30.16,10.0,SE,3.5,-,N/A,,Clear,140,2013-10-09 06:15:00
1:35 AM,53.6,44.6,72,30.17,10.0,SSE,3.5,-,N/A,,Clear,150,2013-10-09 06:35:00
1:55 AM,54.0,44.8,71,30.17,10.0,Calm,Calm,-,N/A,,Clear,0,2013-10-09 06:55:00
2:15 AM,51.8,44.2,75,30.17,10.0,SE,4.6,-,N/A,,Clear,140,2013-10-09 07:15:00
2:35 AM,52.9,44.6,73,30.18,10.0,SE,4.6,-,N/A,,Clear,130,2013-10-09 07:35:00
2:55 AM,52.7,44.4,73,30.18,10.0,Calm,Calm,-,N/A,,Clear,0,2013-10-09 07:55:00
3:15 AM,51.6,44.2,76,30.18,10.0,Calm,Calm,-,N/A,,Clear,0,2013-10-09 08:15:00
3:35 AM,51.4,46.9,85,30.19,10.0,Calm,Calm,-,N/A,,Clear,0,2013-10-09 08:35:00
3:55 AM,51.4,44.4,77,30.19,10.0,SE,3.5,-,N/A,,Clear,140,2013-10-09 08:55:00
4:15 AM,50.4,43.2,76,30.19,10.0,SE,5.8,-,N/A,,Clear,140,2013-10-09 09:15:00
4:35 AM,49.6,43.2,78,30.19,10.0,SE,5.8,-,N/A,,Clear,140,2013-10-09 09:35:00
4:55 AM,49.8,43.0,77,30.19,10.0,SE,4.6,-,N/A,,Clear,140,2013-10-09 09:55:00
5:15 AM,50.4,42.8,75,30.20,10.0,Calm,Calm,-,N/A,,Clear,0,2013-10-09 10:15:00
5:35 AM,50.2,43.2,77,30.21,10.0,Calm,Calm,-,N/A,,Clear,0,2013-10-09 10:35:00
5:55 AM,45.5,41.7,87,30.21,10.0,Calm,Calm,-,N/A,,Clear,0,2013-10-09 10:55:00
6:15 AM,45.7,43.5,92,30.22,10.0,Calm,Calm,-,N/A,,Clear,0,2013-10-09 11:15:00
6:35 AM,45.1,42.8,91,30.22,10.0,Calm,Calm,-,N/A,,Clear,0,2013-10-09 11:35:00
6:55 AM,45.1,43.2,93,30.22,10.0,Calm,Calm,-,N/A,,Clear,0,2013-10-09 11:55:00
7:15 AM,45.0,43.2,93,30.23,10.0,NE,3.5,-,N/A,,Clear,40,2013-10-09 12:15:00
7:35 AM,45.5,43.7,93,30.23,10.0,ENE,3.5,-,N/A,,Clear,70,2013-10-09 12:35:00
7:55 AM,46.0,43.9,92,30.24,10.0,Calm,Calm,-,N/A,,Clear,0,2013-10-09 12:55:00
8:15 AM,48.9,45.9,89,30.24,10.0,Calm,Calm,-,N/A,,Clear,0,2013-10-09 13:15:00
8:35 AM,51.6,47.7,86,30.25,10.0,Calm,Calm,-,N/A,,Clear,0,2013-10-09 13:35:00
8:55 AM,55.8,46.0,70,30.25,10.0,Calm,Calm,-,N/A,,Clear,0,2013-10-09 13:55:00
9:15 AM,57.7,45.3,63,30.24,10.0,SE,3.5,-,N/A,,Clear,130,2013-10-09 14:15:00
9:35 AM,59.4,45.3,60,30.24,10.0,SSE,3.5,-,N/A,,Clear,150,2013-10-09 14:35:00
9:55 AM,61.3,43.3,52,30.24,10.0,SSE,3.5,-,N/A,,Clear,160,2013-10-09 14:55:00
10:15 AM,63.0,42.6,47,30.24,10.0,SSE,5.8,-,N/A,,Clear,160,2013-10-09 15:15:00
10:35 AM,64.4,41.9,44,30.24,10.0,SE,4.6,-,N/A,,Clear,140,2013-10-09 15:35:00
10:55 AM,65.8,41.0,40,30.23,10.0,Calm,Calm,-,N/A,,Clear,0,2013-10-09 15:55:00
11:15 AM,67.1,39.2,36,30.23,10.0,Calm,Calm,-,N/A,,Clear,0,2013-10-09 16:15:00
11:35 AM,68.5,37.6,32,30.23,10.0,Calm,Calm,-,N/A,,Clear,0,2013-10-09 16:35:00
11:55 AM,68.5,37.0,31,30.22,10.0,Calm,Calm,-,N/A,,Clear,0,2013-10-09 16:55:00
12:15 PM,69.6,36.7,30,30.22,10.0,Calm,Calm,-,N/A,,Clear,0,2013-10-09 17:15:00
12:35 PM,70.5,37.2,30,30.21,10.0,East,4.6,-,N/A,,Unknown,100,2013-10-09 17:35:00
12:55 PM,71.4,34.9,26,30.20,10.0,ESE,8.1,-,N/A,,Unknown,110,2013-10-09 17:55:00
1:15 PM,72.5,34.0,24,30.19,10.0,SE,8.1,-,N/A,,Clear,130,2013-10-09 18:15:00
1:35 PM,73.4,31.8,22,30.18,10.0,SE,8.1,-,N/A,,Clear,130,2013-10-09 18:35:00
1:55 PM,73.9,32.9,22,30.17,10.0,SSE,6.9,-,N/A,,Clear,150,2013-10-09 18:55:00
2:15 PM,73.8,32.4,22,30.16,10.0,ESE,6.9,-,N/A,,Clear,120,2013-10-09 19:15:00
2:35 PM,74.7,30.6,20,30.16,10.0,ESE,9.2,-,N/A,,Clear,110,2013-10-09 19:35:00
2:55 PM,75.2,29.8,19,30.16,10.0,East,10.4,-,N/A,,Clear,90,2013-10-09 19:55:00
3:15 PM,75.0,27.7,17,30.15,10.0,SE,6.9,10.4,N/A,,Clear,130,2013-10-09 20:15:00
3:55 PM,75.2,29.3,18,30.15,10.0,ESE,6.9,-,N/A,,Clear,110,2013-10-09 20:55:00
4:15 PM,74.7,30.2,19,30.14,10.0,ESE,5.8,-,N/A,,Clear,120,2013-10-09 21:15:00
4:35 PM,74.5,29.3,19,30.14,10.0,ESE,9.2,-,N/A,,Clear,120,2013-10-09 21:35:00
4:55 PM,73.9,29.8,20,30.14,10.0,SSE,5.8,-,N/A,,Clear,150,2013-10-09 21:55:00
5:15 PM,73.4,30.9,21,30.14,10.0,ESE,8.1,-,N/A,,Clear,120,2013-10-09 22:15:00
5:35 PM,72.5,31.5,22,30.14,10.0,ESE,4.6,-,N/A,,Clear,120,2013-10-09 22:35:00
5:36 PM,71.6,30.2,22,30.13,10.0,ESE,4.6,-,N/A,,Clear,110,2013-10-09 22:36:00
5:55 PM,70.5,32.9,25,30.13,10.0,ESE,4.6,-,N/A,,Clear,110,2013-10-09 22:55:00
6:15 PM,67.1,35.1,31,30.13,10.0,East,4.6,-,N/A,,Clear,100,2013-10-09 23:15:00
6:55 PM,64.8,36.1,35,30.13,10.0,East,4.6,-,N/A,,Clear,100,2013-10-09 23:55:00
7:15 PM,64.4,36.0,35,30.13,10.0,East,4.6,-,N/A,,Clear,90,2013-10-10 00:15:00
7:35 PM,63.5,37.4,38,30.14,10.0,East,4.6,-,N/A,,Clear,80,2013-10-10 00:35:00
7:55 PM,58.5,39.2,49,30.14,10.0,ENE,4.6,-,N/A,,Clear,70,2013-10-10 00:55:00
8:15 PM,59.0,40.1,50,30.15,10.0,ENE,6.9,-,N/A,,Clear,70,2013-10-10 01:15:00
8:35 PM,58.1,41.9,55,30.15,10.0,NE,3.5,-,N/A,,Clear,50,2013-10-10 01:35:00
8:55 PM,54.7,42.8,64,30.15,10.0,ENE,3.5,-,N/A,,Clear,60,2013-10-10 01:55:00
9:15 PM,55.9,43.9,64,30.15,10.0,ENE,5.8,-,N/A,,Clear,70,2013-10-10 02:15:00
9:35 PM,54.5,44.2,68,30.15,10.0,East,8.1,-,N/A,,Clear,90,2013-10-10 02:35:00
9:55 PM,56.5,45.7,67,30.15,10.0,East,5.8,-,N/A,,Clear,90,2013-10-10 02:55:00
10:15 PM,56.1,45.1,67,30.15,10.0,East,3.5,-,N/A,,Clear,80,2013-10-10 03:15:00
10:35 PM,52.2,44.6,75,30.15,10.0,ENE,3.5,-,N/A,,Clear,70,2013-10-10 03:35:00
10:55 PM,51.8,45.0,77,30.15,10.0,Calm,Calm,-,N/A,,Clear,0,2013-10-10 03:55:00
11:15 PM,51.1,45.3,81,30.15,10.0,NNE,3.5,-,N/A,,Clear,20,2013-10-10 04:15:00
11:55 PM,50.4,45.1,82,30.14,10.0,NNE,4.6,-,N/A,,Clear,30,2013-10-10 04:55:00